GEFSSGP_500_meanwind_054.txt.gz
Wind_Speed
10 10 10 10 10 10 9 8 9 9 9 9 8 7 7 6 6 6 7 8 9 9 9 10 10 10 10 11 11 12 12 13 13 13 13 12 11 10 9 8 7 5 5 4 3 4 4 4 5
9 9 9 9 10 8 7 7 8 8 8 7 7 6 6 6 6 7 7 7 8 8 8 8 8 8 8 9 9 10 10 11 11 12 12 12 12 11 10 9 8 6 5 4 3 3 3 3 3
7 8 8 9 9 6 6 6 6 6 6 6 6 5 5 5 5 6 6 7 7 8 8 7 7 6 6 7 7 7 8 9 9 9 10 10 11 11 11 10 9 7 6 4 3 2 2 2 2
5 5 6 7 6 5 4 5 4 4 5 6 5 4 4 4 4 5 5 6 7 7 7 7 6 6 6 5 5 6 6 6 7 7 7 8 8 9 9 9 9 8 6 5 4 3 2 2 2
3 3 4 5 4 3 2 3 3 3 4 5 4 4 3 3 3 4 4 6 6 7 7 7 7 6 6 6 5 5 5 5 5 5 5 6 6 6 7 7 8 7 7 6 4 3 2 2 2
1 1 2 2 1 0 0 1 2 2 2 3 3 3 2 2 2 2 3 5 6 7 7 7 7 8 8 7 6 6 5 4 4 4 4 4 4 4 4 5 5 6 6 5 4 3 2 1 1
1 1 2 1 1 2 2 2 3 3 2 2 3 3 2 1 1 1 3 5 6 7 8 8 8 9 9 9 8 7 6 6 5 4 3 3 2 2 2 2 2 3 3 3 3 3 2 2 1
4 4 3 4 4 4 5 5 4 4 4 4 4 4 4 4 4 3 4 5 7 8 9 10 10 10 11 11 10 10 9 8 7 6 5 4 3 3 2 2 2 1 1 1 1 1 1 2 1
7 7 7 6 6 6 6 6 7 7 7 7 7 7 7 7 7 7 7 7 8 9 10 11 12 13 13 13 13 12 12 11 11 10 9 7 6 5 5 4 4 4 3 3 2 2 1 1 1
9 9 10 10 9 9 9 10 10 10 10 10 10 11 10 10 10 11 11 11 11 11 12 13 14 15 16 16 16 15 15 14 14 13 12 11 10 8 7 7 6 6 6 6 5 4 4 2 2
11 12 12 12 13 13 12 13 13 13 14 14 14 14 14 14 14 14 14 15 15 15 15 16 17 17 18 19 19 19 18 18 17 16 15 14 13 12 10 9 9 8 8 8 8 7 6 5 4
12 13 14 15 15 16 16 16 17 18 17 18 19 19 18 18 18 18 18 18 19 19 19 20 20 21 21 22 22 22 22 21 21 20 19 17 16 15 14 13 11 10 10 9 10 9 9 8 7
14 15 16 17 18 19 20 20 21 22 22 23 23 23 23 22 22 22 23 23 23 24 23 24 25 24 24 25 26 25 24 24 24 23 23 21 20 19 17 16 14 13 12 11 11 11 11 11 10
17 18 19 20 21 22 23 24 25 26 27 27 27 27 27 27 27 27 27 28 28 28 28 28 29 29 28 28 29 29 28 27 27 26 26 25 23 22 21 19 17 15 14 14 14 13 13 13 13
20 21 23 24 25 25 27 27 27 28 29 30 30 30 30 31 32 32 32 33 33 33 33 33 33 32 32 32 32 30 31 31 31 30 29 28 26 25 24 22 21 18 16 16 16 15 15 15 15
23 25 26 26 27 28 29 29 29 30 31 32 32 32 33 34 35 36 37 37 38 38 38 38 37 37 36 36 35 35 32 33 34 34 33 32 30 29 27 26 24 21 20 19 18 18 17 17 17
24 26 27 28 28 29 30 31 31 31 32 33 33 34 35 36 37 38 39 41 41 42 43 43 43 41 41 40 38 37 37 35 35 35 36 35 33 32 31 30 27 24 23 22 21 20 19 19 18
26 27 28 28 29 30 30 31 31 31 32 33 34 35 36 37 39 40 41 42 44 45 46 46 46 45 43 43 43 41 40 39 38 37 35 36 35 33 32 31 29 27 26 25 24 22 22 21 20
25 27 28 28 28 28 28 29 29 30 31 32 34 35 37 38 39 40 41 42 44 46 46 47 48 48 48 47 46 44 44 43 42 39 37 36 34 33 32 32 30 28 28 26 24 24 23 24 23
25 26 26 26 26 27 27 28 28 29 30 31 33 34 35 37 38 39 39 41 42 44 45 45 46 48 49 49 49 48 47 47 45 43 40 37 35 35 33 32 29 28 27 27 26 25 25 25 25
23 24 24 25 25 25 27 28 27 28 29 31 32 32 32 33 35 37 37 38 39 40 40 42 43 45 46 48 48 48 48 48 46 44 42 39 35 33 31 30 29 28 27 26 27 28 26 25 26
21 22 24 25 25 25 25 28 27 28 29 29 29 29 30 31 32 33 33 33 35 36 36 37 39 41 43 44 45 45 45 45 45 45 42 40 38 36 34 32 31 31 29 27 27 27 26 26 26
20 22 22 22 23 23 23 25 26 25 26 26 26 27 27 28 28 27 27 28 28 29 31 32 35 37 39 40 41 42 42 42 42 42 41 39 38 37 36 34 31 31 30 28 27 25 25 26 26
19 19 19 19 20 21 21 21 22 21 21 21 22 22 22 23 24 24 23 22 22 23 25 26 28 30 32 33 35 36 37 38 38 38 38 37 36 36 35 34 32 31 31 30 29 28 27 27 27
17 17 18 19 19 18 18 18 17 16 17 17 18 18 18 19 19 18 17 17 17 17 17 19 20 21 23 25 27 29 31 31 32 33 34 34 34 33 33 32 32 32 31 30 30 29 29 29 29
15 16 17 17 18 17 16 15 15 15 15 16 16 17 16 16 16 15 15 14 14 12 12 12 12 13 14 16 18 20 23 25 25 27 29 29 30 31 31 32 31 31 31 30 30 30 28 28 29
14 14 15 15 15 14 14 14 14 14 15 15 16 17 16 15 14 13 14 13 12 10 9 9 9 8 8 10 12 13 17 18 19 21 24 26 28 28 30 31 31 31 30 31 31 31 30 30 30
15 15 15 15 14 14 13 13 13 14 14 15 16 16 16 14 14 14 15 14 12 11 10 9 8 6 4 4 5 7 10 13 14 15 18 21 24 25 27 28 29 30 31 31 32 32 32 32 32
16 15 15 15 15 13 13 13 12 13 13 14 15 16 16 15 15 15 16 16 14 13 12 11 11 10 7 5 1 2 4 7 10 11 14 17 19 21 24 25 26 27 28 29 30 31 31 31 31
16 16 16 16 16 14 13 13 13 13 14 15 16 16 16 16 16 17 17 18 18 16 15 15 14 12 12 11 8 5 2 2 4 6 8 11 14 17 19 21 23 23 25 25 26 27 28 29 30

GEFSSGP_500_meanwind_060.txt.gz
Wind_Speed
8 7 8 6 4 5 7 6 5 4 3 2 1 1 2 3 3 4 4 4 4 4 4 4 5 5 5 5 5 5 5 6 6 6 6 5 4 3 3 3 3 3 3 4 5 6 7 7 8
6 5 6 4 5 7 7 6 4 4 3 3 2 3 2 2 3 4 4 5 5 5 4 4 4 4 4 3 3 3 4 4 5 5 5 5 5 4 3 3 3 3 3 4 4 5 5 5 6
4 4 5 2 5 6 6 5 5 5 4 4 4 3 2 2 3 4 5 5 6 6 6 5 5 4 4 3 3 2 2 2 3 3 4 4 4 4 3 3 3 2 2 3 3 4 4 5 5
3 3 3 3 4 5 5 5 6 5 5 5 4 4 4 3 3 4 5 6 7 7 8 7 7 6 6 5 5 4 3 2 2 1 2 2 2 2 3 3 2 2 2 2 2 3 3 4 4
2 3 3 3 4 4 5 5 6 6 6 6 5 5 4 4 5 5 6 7 7 8 9 9 9 9 8 8 7 6 6 5 4 3 2 2 1 1 1 1 2 2 2 2 1 2 3 3 4
2 3 4 5 6 5 6 6 6 7 7 8 7 6 5 5 6 7 8 8 8 9 10 11 11 11 11 10 10 9 8 7 7 6 5 4 3 3 2 1 1 0 0 1 1 1 1 2 3
3 2 5 6 7 7 8 8 8 8 8 9 9 8 7 7 7 8 9 10 10 10 11 13 13 13 13 13 12 12 11 10 10 9 8 7 6 5 5 4 3 3 2 1 1 0 0 1 3
5 5 6 8 8 10 11 11 11 10 10 10 10 9 9 10 10 11 11 12 12 13 13 14 15 15 15 15 15 15 14 13 13 12 11 11 9 8 8 7 6 6 5 4 3 2 1 1 2
7 6 8 11 10 12 14 14 14 13 13 13 13 13 12 13 13 13 14 14 15 15 15 15 16 16 17 17 17 17 17 16 16 15 15 14 13 11 11 10 9 9 8 7 6 4 4 3 2
9 9 11 14 14 15 16 16 16 16 15 16 16 16 16 16 16 17 17 17 18 18 18 18 18 19 19 19 20 19 19 19 19 18 18 17 16 15 14 13 12 11 10 10 9 7 6 6 5
11 12 14 15 17 17 17 18 19 19 19 19 20 20 20 20 20 21 21 21 21 22 22 22 22 22 22 21 21 22 22 23 22 22 21 20 20 18 17 16 15 14 13 12 11 11 9 8 7
13 15 16 16 18 19 19 20 21 22 23 23 24 24 24 24 24 25 25 25 25 26 26 26 26 25 24 24 24 25 26 27 27 26 25 23 22 21 19 19 18 17 16 15 14 13 12 11 9
16 17 19 20 21 22 22 23 24 25 26 27 27 27 28 28 29 29 30 30 30 30 30 30 30 30 30 29 28 28 28 29 29 28 28 28 26 25 23 22 21 20 18 17 16 15 14 13 12
20 21 22 24 25 25 26 26 27 28 29 30 31 31 32 32 33 34 34 34 35 35 35 35 35 35 35 33 33 32 32 32 31 30 29 30 29 28 27 26 24 23 21 20 20 18 17 16 15
22 24 26 27 27 27 29 29 28 30 32 32 33 34 34 35 36 37 37 38 39 39 39 40 40 40 39 38 38 37 35 35 34 32 32 31 32 31 31 29 28 26 25 23 23 21 20 19 17
23 25 27 28 28 28 31 32 31 32 33 34 34 35 36 36 37 38 38 39 41 41 42 42 43 43 43 43 42 42 41 39 37 34 34 33 32 32 31 31 30 30 28 27 25 24 22 22 20
22 20 24 30 31 32 33 34 32 32 33 34 34 35 36 36 37 37 38 39 40 42 43 44 44 45 46 46 46 46 46 44 41 39 37 37 35 33 32 32 33 33 31 29 28 27 25 23 22
23 25 26 33 35 35 36 34 32 32 33 34 34 34 35 35 36 36 36 37 39 40 41 42 44 45 45 46 46 47 48 47 45 43 42 41 39 37 34 32 34 34 33 32 31 30 29 26 24
25 27 28 34 34 33 34 34 33 32 32 33 33 34 34 34 34 35 35 35 36 37 38 39 41 43 43 44 45 46 45 45 45 44 43 42 40 39 38 35 34 34 33 33 33 32 30 29 28
26 27 28 31 31 30 32 33 31 30 30 31 32 33 34 34 34 34 34 34 34 35 36 37 38 39 40 41 43 44 45 45 45 44 44 44 42 39 38 37 34 34 34 32 32 32 32 31 30
25 26 26 28 29 29 29 30 30 28 27 28 29 29 30 30 31 31 31 31 31 32 33 33 34 35 36 37 38 39 41 42 43 43 43 43 43 40 38 36 35 34 32 31 30 30 30 31 31
24 24 24 25 25 26 26 27 29 28 26 27 26 26 26 26 26 26 26 26 27 28 28 29 29 31 32 33 34 35 36 38 39 40 41 41 41 40 40 37 35 34 34 32 30 29 29 30 31
21 22 21 22 21 21 22 23 28 26 25 25 25 24 23 22 22 22 23 23 23 23 24 25 25 26 26 27 28 29 31 34 35 37 38 38 37 37 37 36 35 34 34 33 31 30 29 30 29
19 19 19 18 18 19 19 21 26 24 24 23 23 23 21 20 19 19 20 19 19 19 19 19 19 20 21 22 23 25 26 28 30 33 34 34 34 34 33 32 33 32 32 32 31 29 29 29 29
17 18 17 16 17 19 20 21 22 21 21 21 21 20 19 17 17 17 17 17 17 17 17 16 15 16 16 17 18 19 21 22 24 26 29 30 31 31 31 31 31 31 31 31 31 30 30 30 30
16 15 15 12 9 14 17 18 18 19 19 19 19 18 17 16 15 15 16 16 16 15 15 14 14 14 14 13 13 14 14 16 18 20 22 25 27 28 28 28 29 30 30 30 31 32 30 29 29
15 14 13 12 10 10 15 18 17 17 18 18 17 17 16 15 15 16 16 17 16 16 14 14 14 14 13 12 11 10 9 10 12 14 17 19 21 23 25 27 28 29 30 31 31 30 30 30 30
14 13 13 12 12 9 12 17 19 18 17 17 17 16 16 16 17 17 17 18 18 18 17 16 16 15 14 13 12 9 8 7 6 7 9 13 16 19 21 24 26 27 29 30 31 30 30 30 30
14 14 13 13 13 12 12 15 17 17 16 16 16 15 16 16 17 18 17 18 19 20 19 19 18 17 16 15 13 11 9 8 7 6 5 7 10 12 15 19 22 24 25 27 28 29 30 30 31
15 15 14 14 13 13 14 15 15 16 16 16 16 16 17 17 18 18 18 18 19 19 20 19 19 19 18 18 16 14 12 9 8 7 6 6 7 9 11 14 17 21 24 25 27 28 29 29 29

GEFSSGP_500_meanwind_066.txt.gz
Wind_Speed
9 7 7 8 6 6 6 6 8 9 8 7 6 5 4 3 2 3 3 2 3 3 2 1 1 1 1 1 2 2 2 3 3 3 3 3 2 2 2 1 2 3 4 6 7 9 10 11 12
7 6 6 7 7 6 6 7 8 7 8 7 6 5 4 3 3 4 3 3 4 4 4 4 3 3 2 2 2 1 1 1 1 2 2 2 2 2 2 2 2 2 3 4 6 7 8 9 9
5 6 7 7 6 6 7 7 7 8 9 8 7 6 5 4 3 4 4 5 5 5 6 6 6 6 5 5 4 4 3 3 2 2 2 1 2 2 2 2 2 2 2 3 4 5 6 7 7
4 5 6 6 6 6 7 7 8 9 9 8 7 7 6 4 4 4 5 5 6 6 7 8 8 8 8 8 7 7 6 6 5 4 4 3 3 2 2 2 2 2 2 3 3 4 5 6 6
6 7 7 7 6 6 6 7 8 9 9 9 8 7 7 6 5 5 6 6 7 8 9 9 10 10 10 10 10 10 9 9 8 7 7 6 5 5 4 3 3 3 3 3 3 4 5 5 5
7 8 8 8 6 5 6 7 8 8 9 10 9 8 8 7 6 7 8 8 8 9 10 10 10 11 12 12 12 12 12 12 11 10 9 9 8 7 6 5 5 4 4 4 3 4 4 5 5
7 9 9 9 7 6 7 9 10 11 11 11 10 10 10 9 8 7 9 9 10 10 11 12 12 13 14 14 15 15 15 15 14 13 12 11 10 10 9 8 7 6 5 5 4 4 4 5 5
9 10 10 10 8 7 9 10 12 13 13 14 13 12 13 12 12 10 11 11 12 13 13 14 15 16 16 17 17 18 18 17 17 16 15 14 13 13 12 11 10 9 8 7 6 6 5 5 4
10 10 11 11 12 12 12 13 14 15 16 16 16 16 15 15 16 15 15 15 15 15 16 17 17 17 18 19 20 20 20 20 20 20 19 18 16 16 15 14 13 12 11 10 9 8 7 6 6
10 11 12 11 12 13 13 14 15 17 18 19 19 19 19 20 20 20 20 20 20 19 20 20 21 21 21 21 21 22 22 22 23 22 22 21 20 19 18 17 16 15 14 12 11 10 10 9 7
12 12 12 13 14 15 15 17 18 19 20 21 22 23 23 23 24 24 25 26 26 26 25 26 25 25 25 24 24 23 23 24 24 25 24 24 23 23 21 20 19 18 17 15 14 13 12 11 10
13 14 15 15 16 17 19 20 21 22 23 24 25 26 26 27 27 28 28 29 30 30 31 31 31 30 30 29 28 27 26 26 26 26 26 26 25 25 24 24 23 22 20 19 17 16 14 13 12
15 16 18 18 19 20 21 22 23 24 25 26 27 28 29 30 30 31 31 32 33 34 34 35 35 35 35 34 33 31 30 30 29 27 27 29 28 27 26 26 26 25 24 22 20 19 17 16 15
18 19 20 21 22 22 22 23 23 24 26 27 28 30 30 31 32 33 33 34 35 36 37 38 39 39 38 38 37 37 36 34 33 32 30 30 30 29 28 27 27 27 27 26 25 22 20 19 17
19 20 21 22 22 23 25 25 24 26 28 29 30 31 31 32 33 34 35 36 36 37 38 39 40 40 40 40 40 40 39 38 37 35 34 32 31 30 28 27 26 26 27 28 27 25 23 21 20
20 21 22 23 25 26 26 27 28 28 30 31 31 32 32 33 33 34 35 36 36 37 38 38 39 39 40 40 40 41 40 39 38 37 37 35 33 32 30 29 28 27 26 28 29 28 26 24 23
21 23 24 26 28 29 29 29 29 29 30 30 31 31 32 32 33 33 34 34 35 36 36 35 35 36 37 38 39 40 40 39 39 38 38 37 36 34 32 30 29 28 27 27 28 28 29 28 27
21 23 25 27 29 31 31 30 30 29 29 29 29 30 31 31 32 32 32 32 33 33 33 34 34 34 35 36 37 38 39 39 38 38 37 37 37 36 34 32 31 30 29 29 28 27 29 30 29
21 23 26 28 29 30 30 29 27 27 27 26 27 28 29 29 30 30 29 29 29 29 29 30 31 33 33 34 35 36 37 37 38 37 37 37 37 37 36 35 34 33 31 30 29 29 29 30 30
20 23 25 27 28 28 27 26 25 24 23 23 24 24 25 26 26 26 26 26 26 26 27 27 28 29 29 30 31 33 34 35 35 36 37 37 37 37 37 37 36 35 33 31 30 29 29 30 31
20 22 23 24 25 25 25 23 22 20 20 20 20 21 23 23 23 23 23 22 23 23 23 23 24 24 25 26 27 28 29 31 32 33 34 35 36 36 36 36 36 35 35 35 33 31 30 30 30
19 20 21 22 22 22 22 20 18 18 18 19 20 21 22 22 21 20 20 19 19 19 19 19 20 20 21 22 23 25 26 28 29 30 31 32 32 33 34 34 35 36 36 35 34 33 31 32 33
17 18 18 19 18 18 18 17 17 17 19 20 21 21 22 22 20 19 17 17 17 16 16 16 17 17 18 19 19 20 21 23 25 26 28 29 30 31 31 32 34 36 36 36 35 35 33 33 33
15 16 16 16 15 14 14 15 17 18 19 20 20 20 21 21 20 18 17 16 16 16 15 15 16 16 16 15 16 16 17 18 20 22 24 26 28 29 30 31 33 35 36 36 36 37 35 35 34
13 13 13 13 13 13 13 14 16 18 18 18 18 19 19 19 19 18 18 17 17 17 17 16 16 15 14 14 14 13 13 14 14 16 18 21 24 26 28 30 31 33 35 35 35 37 37 37 36
12 13 13 13 14 14 14 15 16 16 16 17 17 17 18 18 18 18 18 18 18 17 17 17 16 16 14 13 13 12 11 10 10 11 13 15 18 21 24 26 29 31 34 35 36 37 36 37 37
12 13 13 13 14 14 15 14 15 15 16 17 17 18 18 18 18 18 19 19 18 18 18 17 17 17 15 14 13 12 10 10 8 7 8 10 12 15 19 23 25 28 31 34 36 36 36 35 35
12 12 13 13 14 14 15 15 15 15 16 17 18 18 18 19 19 19 20 20 19 18 18 17 17 17 16 15 14 12 12 10 8 7 7 7 9 11 13 16 20 23 26 30 32 33 34 33 32
11 12 13 14 14 15 15 15 15 15 16 17 18 19 19 20 21 21 20 21 21 21 20 19 18 19 18 18 17 14 13 12 10 9 7 7 7 8 10 13 16 18 22 24 27 30 32 33 33
11 12 13 14 14 15 15 15 15 15 16 17 18 18 19 21 21 21 21 21 21 22 22 21 20 19 19 19 18 16 15 14 13 11 10 9 7 7 8 9 12 15 18 20 23 26 29 30 32

GEFSSGP_500_meanwind_072.txt.gz
Wind_Speed
7 8 8 9 8 7 7 6 6 6 6 6 5 4 4 4 4 4 4 4 3 3 4 4 4 4 3 3 2 3 3 4 4 3 3 3 3 3 2 1 0 2 3 4 5 6 7 8 9
6 8 8 9 8 7 6 6 6 6 6 6 6 5 5 5 5 4 5 5 4 4 5 6 5 5 4 4 3 2 2 2 2 2 2 2 2 2 2 1 1 1 2 3 4 5 6 7 7
8 9 9 9 8 7 5 5 5 5 6 6 7 7 7 6 6 6 6 6 6 6 7 7 7 7 6 6 5 4 3 3 2 2 2 1 1 1 1 1 2 2 2 2 3 4 4 5 6
9 10 9 9 8 6 5 4 5 5 7 7 8 8 7 7 7 7 7 8 8 8 9 9 8 8 9 8 8 7 7 6 5 5 4 4 3 3 2 2 2 2 2 2 3 3 3 4 5
9 9 9 9 8 6 6 6 5 6 7 8 8 9 9 9 9 9 9 10 10 10 10 9 9 10 10 10 11 11 10 9 8 8 7 6 6 5 5 4 3 3 3 3 3 3 3 4 5
8 9 10 9 8 7 8 7 6 7 8 9 10 10 10 11 11 11 11 12 12 11 12 11 10 10 11 12 12 13 12 12 12 11 10 9 9 8 7 7 6 5 4 4 3 3 3 3 4
9 10 11 10 10 9 10 10 9 9 10 10 11 12 13 13 13 14 14 14 14 13 13 13 12 12 13 14 15 15 15 15 14 14 13 13 12 11 10 9 8 7 7 6 5 4 4 4 4
10 11 12 12 13 12 13 12 12 12 13 12 12 12 14 15 16 16 16 16 17 16 16 16 15 15 14 14 15 16 16 17 17 17 17 16 15 14 13 12 11 10 9 9 7 6 6 5 5
11 12 13 14 14 15 15 14 15 15 16 16 16 17 17 18 19 19 19 19 20 20 20 20 19 19 18 18 18 18 18 18 19 19 19 19 18 18 16 15 14 13 12 11 10 9 8 7 6
12 13 15 15 16 17 17 18 18 19 19 20 21 21 22 22 22 23 23 24 24 25 25 25 24 24 24 24 23 22 21 20 21 21 21 21 20 20 20 19 18 16 15 14 13 12 11 9 9
13 14 16 17 17 18 19 20 21 22 23 24 24 25 26 26 26 26 27 28 29 29 29 30 29 28 28 28 27 26 25 24 23 23 23 23 23 23 22 21 21 20 19 17 16 15 14 12 11
15 16 17 17 18 19 21 22 23 25 26 27 28 28 28 29 29 30 31 32 33 33 33 33 33 33 32 32 31 30 30 28 27 26 25 25 24 24 24 24 23 23 22 21 19 18 17 15 14
16 17 18 19 20 22 22 23 24 26 27 28 29 30 31 32 32 33 34 35 36 36 36 36 36 36 36 36 36 35 34 33 32 31 30 27 26 25 25 25 25 25 25 25 23 21 19 19 17
18 18 19 21 22 23 24 24 25 27 28 29 30 31 32 33 34 35 35 36 37 37 36 37 37 37 37 37 37 38 38 37 36 35 34 32 30 29 27 27 26 26 28 28 27 25 23 21 21
19 20 21 22 23 24 25 25 27 28 29 30 31 31 31 32 32 32 33 34 35 35 35 35 35 35 36 37 37 37 38 38 38 37 36 36 35 33 32 30 28 28 28 28 27 26 25 24 23
19 20 22 23 23 24 26 26 27 28 28 29 30 29 29 30 30 30 31 31 32 32 33 34 34 34 35 35 35 36 36 37 38 38 37 37 37 36 35 34 32 31 29 27 27 28 27 26 26
21 22 23 23 23 25 26 26 26 26 27 27 28 27 27 28 28 28 29 29 29 30 30 31 31 32 32 32 33 33 34 34 35 36 37 38 38 37 37 36 36 34 32 29 27 27 28 27 26
21 22 22 23 24 25 25 25 25 25 25 25 25 25 25 25 26 26 26 26 26 27 26 26 27 27 28 29 29 30 31 32 33 34 35 37 38 38 38 37 38 37 35 32 30 29 28 27 26
20 21 23 23 24 24 23 23 23 22 22 22 22 23 23 24 24 24 24 23 23 23 22 22 22 23 23 24 25 26 27 29 30 32 33 36 37 38 38 38 39 39 38 36 34 31 30 29 28
19 21 22 22 22 22 21 20 19 19 20 20 21 21 21 22 22 22 21 21 20 19 19 18 18 19 20 21 22 23 24 25 27 28 30 33 35 37 38 40 40 40 40 39 37 35 33 32 30
18 20 20 20 20 19 18 17 17 17 18 18 19 19 19 20 20 20 20 19 19 18 17 17 17 17 18 18 19 19 20 21 22 24 25 28 30 33 36 39 40 41 41 41 39 37 36 34 32
17 18 18 17 17 16 16 15 15 16 16 17 17 18 18 19 20 20 20 19 18 18 17 17 16 16 16 16 17 17 18 19 20 21 22 24 26 29 32 35 38 40 41 42 42 40 38 37 35
14 15 15 14 14 13 13 14 14 14 15 16 17 18 18 19 19 20 20 19 19 18 17 17 17 16 16 15 15 15 16 17 18 19 20 22 24 26 28 31 35 38 40 42 42 42 41 39 38
12 13 12 12 12 12 13 13 13 14 15 16 17 18 18 19 20 20 20 20 20 19 18 17 17 17 16 15 15 14 14 14 15 16 17 19 21 23 25 28 31 34 38 40 41 42 43 42 41
10 11 10 10 11 11 12 13 13 14 16 17 18 18 19 20 20 21 20 21 21 20 18 18 18 18 16 15 15 14 13 13 14 14 15 17 19 20 23 25 28 31 34 38 40 42 43 43 42
8 9 9 9 10 11 12 12 13 14 16 17 18 18 19 20 20 20 20 21 21 20 20 19 19 19 18 16 16 14 13 13 13 13 14 15 16 17 19 21 24 28 31 34 37 39 42 43 43
6 7 8 9 9 10 12 12 13 15 16 16 17 18 20 21 21 21 21 21 22 21 20 20 19 19 18 18 18 16 15 14 13 12 12 12 13 14 16 18 21 24 28 31 35 37 38 40 42
6 7 8 9 10 11 12 13 14 15 15 16 17 19 20 21 21 21 21 22 22 21 21 20 20 20 19 19 19 18 17 15 14 13 12 11 11 12 14 15 18 21 24 28 31 34 36 37 39
5 6 7 8 10 11 12 13 14 15 15 16 17 19 20 21 21 21 22 22 23 23 22 21 21 21 21 21 20 20 18 17 16 15 13 12 11 12 12 13 15 17 20 24 27 29 32 34 36
5 6 7 8 9 11 12 13 14 14 15 16 17 18 19 20 21 21 21 22 22 23 23 22 23 23 22 22 22 21 19 18 17 16 15 14 12 11 10 10 11 13 16 18 20 23 27 29 31

GEFSSGP_500_meanwind_078.txt.gz
Wind_Speed
8 7 6 6 6 6 5 4 3 3 2 2 1 1 1 3 4 6 6 6 7 7 7 7 7 7 7 7 7 7 7 8 8 8 8 8 7 7 7 7 7 8 8 8 8 9 9 9 10
7 8 7 6 6 5 5 4 3 3 3 3 2 2 3 4 5 6 7 7 8 8 9 9 9 9 9 9 9 9 9 8 8 8 8 8 8 8 7 7 7 7 7 7 8 8 8 8 8
7 7 7 6 6 5 5 4 3 3 3 4 4 4 4 5 6 8 8 8 8 9 10 11 11 11 11 11 10 10 10 10 10 9 9 9 9 8 8 7 7 7 7 7 7 7 7 7 7
6 6 6 7 6 6 6 6 6 6 5 5 6 6 7 7 8 9 9 10 9 10 11 13 13 13 13 13 13 12 12 12 11 11 10 10 9 9 9 8 7 7 7 6 6 7 7 7 7
7 7 7 7 7 7 8 8 8 8 8 8 8 9 9 10 10 11 11 11 11 12 13 13 13 14 15 15 15 15 15 14 14 13 12 12 11 11 10 9 9 8 7 7 7 7 7 7 7
7 7 8 8 8 8 10 10 10 10 10 11 11 11 12 13 13 13 13 14 15 15 15 14 14 14 15 16 18 17 16 16 16 15 14 14 14 13 12 12 11 10 9 8 7 7 7 7 7
8 8 8 9 9 10 11 11 11 11 12 13 14 15 15 16 17 17 16 17 18 18 18 16 15 15 16 17 18 19 18 18 18 18 17 17 17 16 15 14 14 12 11 10 9 8 8 8 7
9 9 10 10 11 12 13 13 14 15 16 17 17 18 19 20 21 22 21 21 21 21 21 21 20 19 18 18 19 21 21 20 20 20 20 19 18 18 18 17 16 15 14 12 11 10 10 9 8
10 11 12 12 13 14 15 16 17 17 18 19 20 22 23 24 25 26 26 26 26 25 26 26 25 25 24 23 22 22 22 22 21 21 21 21 20 20 20 20 19 18 16 15 14 13 12 11 10
12 13 14 15 15 16 17 18 19 20 21 22 24 25 26 27 28 29 29 29 30 30 30 31 31 30 29 28 27 26 26 25 24 23 23 23 22 22 21 21 21 21 19 18 16 15 14 13 12
14 14 15 17 17 18 19 20 21 23 24 25 26 27 28 29 29 30 31 32 32 33 34 34 33 33 33 33 32 31 30 29 28 27 25 24 24 23 23 23 23 23 22 21 19 18 17 16 14
15 16 17 18 19 20 21 22 23 25 26 28 29 30 30 30 31 31 32 33 34 35 36 36 36 36 36 35 35 35 34 33 32 31 30 29 28 26 24 25 23 24 24 23 22 21 20 18 17
16 17 18 19 20 21 22 24 25 27 28 29 30 30 30 30 30 30 30 32 33 34 35 35 35 36 37 37 37 36 37 36 36 36 34 33 32 31 28 26 26 26 27 26 24 23 23 22 20
16 17 19 20 20 22 23 24 26 27 28 28 28 28 28 27 27 28 28 28 29 30 31 32 33 34 34 35 36 37 37 38 38 38 38 37 36 35 34 32 30 29 28 29 28 27 25 24 23
17 18 19 20 21 22 24 24 25 26 27 27 27 26 25 25 25 25 25 26 26 27 28 29 29 30 31 32 33 35 36 37 38 38 39 38 38 38 37 36 35 33 31 30 30 29 28 27 26
18 19 20 20 22 23 24 24 24 24 24 24 24 23 23 23 23 24 24 24 24 24 25 25 26 26 27 28 30 31 33 34 36 37 37 38 38 39 38 38 37 36 35 33 32 31 30 29 28
18 18 20 20 21 21 21 21 22 22 22 22 21 21 21 21 22 22 22 22 22 23 23 23 24 24 24 24 25 27 28 30 32 33 35 37 38 38 39 38 39 39 38 36 35 33 32 30 30
18 18 19 20 20 20 19 19 20 20 19 19 19 20 20 21 21 20 20 21 21 21 21 20 20 20 20 20 21 23 25 27 28 30 32 34 35 37 37 38 39 39 39 37 37 36 34 32 31
17 17 18 18 18 18 18 18 17 17 16 17 18 19 19 20 20 20 20 20 20 20 20 18 17 17 17 17 18 19 21 23 25 27 29 30 32 34 36 37 39 40 40 40 39 38 38 35 33
15 16 16 16 16 15 15 15 14 14 15 17 17 17 18 19 20 20 20 20 20 20 18 17 15 15 15 15 16 17 18 19 20 22 25 28 30 32 33 35 37 40 41 41 41 40 39 38 37
13 14 14 14 13 12 12 12 12 13 14 15 16 17 18 19 19 20 20 20 19 18 17 16 15 15 14 14 15 15 16 16 17 19 21 23 26 29 31 33 35 37 39 40 41 42 41 40 39
12 11 11 10 10 10 10 10 12 13 14 15 16 16 18 18 18 19 20 19 18 18 18 17 16 15 14 14 14 14 14 14 15 17 18 20 22 26 29 31 33 35 37 39 41 42 43 43 41
9 8 8 7 7 7 8 10 11 13 14 14 16 16 17 17 18 19 19 19 18 18 18 18 16 15 15 14 13 12 13 13 13 14 16 18 20 23 26 29 31 33 35 37 40 41 42 43 43
6 5 4 5 6 7 8 10 11 12 13 14 15 17 17 18 18 19 19 19 19 19 19 19 18 17 16 15 14 13 13 13 13 13 14 15 17 20 23 26 28 30 32 34 37 39 40 42 44
3 2 3 5 6 7 8 10 11 12 13 14 15 17 17 18 18 19 19 20 20 19 20 19 19 18 17 17 16 15 14 13 12 12 12 13 15 17 19 22 25 27 29 31 34 36 38 40 42
1 2 3 4 5 7 8 10 11 12 13 14 15 16 17 18 18 18 19 20 20 20 21 20 20 20 19 19 18 17 16 15 14 13 13 13 14 15 17 20 22 25 27 29 31 33 35 38 41
3 4 4 5 5 7 8 9 10 12 13 14 15 16 17 17 18 18 19 19 20 20 21 22 21 21 21 21 20 19 19 17 15 14 12 12 12 14 16 18 20 23 25 27 29 31 34 36 39
5 5 5 5 5 7 8 10 11 12 13 14 15 16 17 17 18 18 19 19 19 20 21 22 23 23 23 22 22 21 20 19 18 16 14 13 12 12 14 16 18 20 22 25 27 29 32 34 37
5 5 5 5 5 6 7 9 10 11 12 14 15 16 17 18 18 19 19 19 19 20 20 22 23 24 23 23 23 23 22 21 20 18 16 15 13 12 12 13 14 16 18 21 24 26 28 31 33
6 5 5 5 5 6 7 8 9 11 12 13 14 16 17 18 18 19 19 19 19 20 20 21 22 23 24 24 24 24 24 24 22 20 19 18 16 14 13 13 12 13 14 16 19 21 24 27 29

GEFSSGP_500_meanwind_084.txt.gz
Wind_Speed
9 8 8 7 6 6 6 7 6 7 8 8 8 8 7 7 7 9 11 11 11 12 12 12 12 12 12 12 12 12 12 12 12 12 12 12 13 13 13 14 14 14 14 13 13 13 13 13 13
9 8 8 7 6 6 7 9 8 8 9 9 9 9 9 9 9 11 12 12 12 12 13 14 14 15 16 15 15 14 14 14 14 14 13 14 13 13 13 13 13 13 13 13 13 13 13 12 12
8 7 8 8 7 8 9 10 10 10 11 10 10 10 10 11 11 12 13 14 14 13 13 14 15 16 18 19 18 17 16 16 16 16 16 16 15 15 14 14 13 13 13 13 13 12 12 12 12
7 7 7 7 8 9 10 11 11 12 12 12 12 12 12 13 13 14 15 15 15 15 15 15 15 16 17 19 20 20 19 19 19 19 18 18 17 17 16 15 14 14 13 13 13 12 12 11 11
7 7 8 8 9 9 11 13 13 14 14 14 14 14 15 15 16 16 17 17 17 17 17 18 18 18 19 18 19 20 22 22 21 21 21 20 19 18 18 17 16 15 14 13 13 12 11 11 10
8 9 8 9 11 13 14 14 15 16 16 16 17 17 17 18 18 19 20 21 21 21 20 21 21 20 20 19 20 22 22 24 23 23 23 23 22 21 20 20 18 17 16 15 14 13 12 11 10
8 9 10 11 13 14 15 16 17 18 18 19 20 20 21 21 22 23 24 24 24 25 24 24 24 24 23 22 22 22 23 24 25 25 25 25 25 24 23 22 21 20 18 17 16 14 13 12 12
11 10 11 13 14 15 16 18 19 20 21 21 22 23 24 25 25 26 27 27 28 28 28 28 27 27 26 25 25 25 25 24 24 25 26 27 27 27 27 25 24 23 21 19 18 17 15 14 13
12 11 13 15 16 18 19 20 21 22 22 23 24 25 27 27 28 29 29 30 30 31 31 31 30 30 30 29 29 29 28 28 28 27 27 28 28 28 29 28 27 26 24 22 20 19 17 16 15
13 13 13 17 18 20 21 22 23 24 24 24 25 26 27 28 30 31 31 31 32 32 32 33 33 33 33 33 33 32 32 32 31 30 29 29 29 29 28 28 28 28 27 25 23 22 20 19 17
13 16 16 18 19 21 22 23 24 25 26 27 27 27 28 30 30 31 31 31 32 32 33 33 33 34 33 34 34 34 34 34 33 33 32 31 30 30 30 29 28 28 28 27 26 24 23 22 20
15 16 18 19 19 21 22 23 24 25 27 27 28 28 29 29 30 30 30 30 30 30 30 30 30 31 32 32 33 34 35 35 36 35 35 34 33 31 31 30 28 27 28 27 27 26 25 24 22
17 17 18 19 20 21 22 23 24 25 26 26 27 27 28 28 29 29 28 28 28 28 27 27 28 28 30 31 32 32 33 33 34 35 36 36 34 32 31 32 32 29 27 27 28 27 26 26 24
16 18 18 19 20 20 22 23 24 24 25 25 26 27 27 26 26 26 26 26 26 26 25 25 25 25 26 27 28 30 30 31 32 33 33 34 35 34 34 33 33 32 30 29 29 28 27 26 26
17 17 18 18 19 20 21 24 24 23 24 25 25 25 23 23 23 23 24 24 24 24 24 23 23 23 24 24 25 26 27 28 29 30 31 31 32 32 32 33 33 33 33 32 31 29 28 28 27
15 16 17 18 20 19 21 24 25 24 24 24 23 22 22 22 22 22 22 22 22 23 22 22 22 22 22 22 22 22 23 24 26 27 29 30 30 31 32 31 32 32 33 33 33 31 30 30 29
13 14 15 19 21 20 22 23 23 21 21 21 21 21 21 21 21 21 21 21 21 22 21 21 21 20 19 19 19 19 19 20 22 24 26 27 29 30 31 32 33 32 32 33 34 32 32 32 31
13 14 15 19 21 21 22 22 21 19 19 20 20 20 20 20 21 20 20 21 21 21 20 20 19 19 18 17 17 17 17 18 19 21 23 24 26 28 29 30 32 32 32 33 33 34 34 33 33
14 15 14 18 19 19 18 18 18 17 18 19 19 19 19 20 19 19 19 20 20 20 20 20 19 18 17 15 15 15 15 16 16 18 20 22 23 26 27 29 30 32 32 33 33 33 34 34 34
13 14 13 17 16 14 14 14 15 16 17 17 17 18 18 18 18 18 19 19 20 20 20 20 19 18 17 15 14 14 14 15 15 16 17 19 21 23 25 27 28 30 31 33 33 34 35 34 34
13 13 13 14 14 13 12 12 13 14 15 15 16 17 17 17 17 18 19 19 20 20 20 20 19 18 17 15 15 14 14 14 14 15 15 17 18 20 22 24 26 28 30 31 33 34 35 35 35
13 12 11 10 10 10 11 11 13 15 15 15 15 15 16 16 17 18 18 19 20 20 20 20 20 19 18 17 16 15 14 14 13 14 14 15 16 17 19 22 24 26 28 30 32 34 35 35 35
12 9 8 7 7 7 8 10 13 14 15 15 15 15 15 15 16 17 18 19 20 20 20 20 20 20 19 19 18 16 15 14 13 13 14 14 15 15 17 19 21 24 26 28 30 32 34 35 35
9 7 5 4 5 6 7 9 11 13 14 14 14 14 14 15 16 16 17 18 19 20 21 21 21 21 20 20 19 18 17 16 15 14 14 13 14 14 15 17 19 22 24 26 28 30 32 33 34
7 6 3 3 6 7 7 8 9 11 12 12 13 13 14 15 15 16 17 18 19 20 21 21 22 22 21 21 21 20 19 18 17 16 15 14 13 13 14 15 17 19 21 23 26 28 30 31 32
7 6 5 5 3 6 6 7 8 9 10 11 12 13 14 14 15 16 17 18 19 19 21 22 22 23 23 22 22 21 20 20 19 18 17 15 14 14 14 14 15 17 18 21 23 25 27 29 31
7 6 5 5 4 1 7 7 6 8 8 10 11 12 13 14 15 16 16 17 18 19 20 21 22 23 23 23 23 22 22 21 21 20 19 17 16 15 14 14 14 15 17 18 20 22 24 26 28
7 6 6 6 5 3 6 7 7 7 8 9 11 12 13 14 15 15 16 17 18 19 20 21 22 23 23 24 24 24 23 22 21 21 21 19 17 15 15 14 13 13 15 16 18 19 21 24 26
7 6 6 5 4 5 4 4 5 6 7 9 10 11 12 13 14 15 16 17 18 18 19 21 22 23 24 24 24 24 25 24 23 22 21 21 19 17 16 15 13 12 12 13 14 16 18 20 23
7 6 6 5 5 3 2 2 4 5 7 8 9 10 11 13 14 15 15 16 17 18 19 20 21 22 23 24 24 24 25 25 25 24 23 22 21 19 17 16 14 13 12 11 12 13 15 17 19

GEFSSGP_500_meanwind_090.txt.gz
Wind_Speed
7 6 5 3 4 3 3 5 6 7 6 7 8 8 8 7 8 9 10 11 10 10 10 9 10 11 11 12 12 13 13 13 13 14 14 15 15 15 15 14 15 15 15 15 15 15 15 16 16
6 6 6 4 5 6 5 5 6 7 6 8 8 8 9 9 9 10 11 11 11 11 11 11 11 12 14 14 14 15 16 16 16 16 16 16 16 16 16 16 16 16 16 15 15 15 15 15 16
6 6 7 7 8 7 7 6 7 8 9 10 10 10 10 11 11 12 12 12 12 11 12 13 13 13 14 15 16 17 17 18 19 18 18 18 18 17 17 17 17 17 17 16 16 16 15 15 15
6 7 8 9 10 9 8 8 8 9 10 11 12 12 12 13 13 14 14 14 15 15 15 15 15 16 16 17 19 19 20 20 21 21 21 20 20 19 19 18 18 18 17 17 16 16 15 15 15
7 8 10 11 11 11 11 10 11 10 12 13 13 14 15 15 15 16 16 17 18 18 18 18 19 19 19 20 21 21 21 23 23 23 23 23 23 22 21 21 20 19 18 18 17 16 16 15 15
8 10 11 12 12 12 11 11 12 13 14 15 16 16 17 18 18 19 20 21 21 22 22 22 22 22 22 23 23 24 24 24 24 25 25 25 26 26 24 23 23 21 20 19 18 17 17 16 14
10 12 13 13 13 13 13 15 16 16 16 17 17 19 19 20 21 22 23 24 24 24 25 25 24 25 25 26 26 27 27 27 26 26 27 27 26 27 27 26 25 24 23 21 20 18 17 16 15
12 13 14 14 14 14 14 15 16 16 17 18 19 20 20 21 22 23 24 25 26 26 27 27 27 27 28 28 29 29 29 29 30 29 29 29 29 28 28 28 28 27 26 24 22 21 19 18 17
13 14 14 14 14 14 15 16 17 18 18 19 20 20 21 22 22 23 24 25 26 26 27 27 28 28 29 30 31 31 32 31 31 31 31 31 31 31 29 29 29 29 28 27 25 24 22 20 19
14 14 14 14 15 16 16 17 17 18 18 19 20 20 21 22 22 23 23 24 24 25 26 27 27 28 28 29 30 32 33 33 33 33 32 32 32 33 31 30 30 30 29 28 28 27 25 22 21
15 15 14 13 14 15 16 16 17 17 18 19 20 21 22 22 22 22 22 22 22 23 23 24 25 25 26 27 28 29 31 33 33 34 34 33 33 33 33 32 31 31 30 29 30 28 28 25 23
15 15 14 14 13 14 16 16 17 18 19 20 21 22 22 22 22 22 21 21 21 21 21 21 22 23 24 25 26 26 28 30 31 32 33 33 33 33 33 33 33 31 31 30 30 29 29 28 26
15 15 13 12 13 13 15 15 16 18 19 20 21 21 21 21 21 21 21 20 20 20 20 20 20 21 21 22 23 24 25 26 28 29 31 32 32 33 32 32 32 31 30 31 31 30 30 30 28
17 16 14 13 12 12 14 13 15 16 17 17 18 19 20 20 19 19 20 19 19 19 19 19 19 19 20 20 21 21 22 23 24 26 27 29 30 30 31 32 31 31 31 31 31 31 29 29 29
16 15 15 14 12 12 13 13 14 15 14 15 16 18 18 18 18 18 18 18 18 18 19 19 19 19 19 18 18 18 19 20 20 21 24 26 27 28 29 30 30 30 31 31 31 32 30 29 28
16 16 14 12 12 11 12 12 12 12 12 14 16 17 17 17 17 17 17 17 18 18 19 19 18 18 17 17 16 16 16 16 17 18 20 22 24 25 26 27 29 29 30 30 31 32 31 29 29
15 13 13 12 11 12 12 10 11 12 12 14 15 15 15 15 16 16 16 17 17 18 18 18 18 17 17 16 15 14 13 13 13 14 16 18 20 22 23 25 26 28 28 30 31 31 31 31 30
14 14 12 11 11 11 9 9 11 11 12 13 14 14 15 16 16 17 17 17 18 18 18 18 18 17 17 16 14 13 12 11 11 11 12 15 17 19 21 23 25 27 28 29 31 31 31 31 31
13 13 12 11 10 10 9 9 9 10 11 12 13 15 15 16 16 17 17 18 18 19 19 18 18 18 17 16 15 13 12 11 10 10 10 12 14 17 18 21 24 25 26 28 29 30 31 30 30
11 10 10 9 8 8 8 7 7 8 9 10 12 14 14 15 16 17 18 18 19 19 19 19 19 19 18 17 16 14 13 12 11 10 10 11 12 14 16 18 21 23 25 27 28 29 30 31 31
10 9 8 8 7 6 7 6 6 7 8 10 12 13 14 15 15 16 17 18 18 18 19 19 19 19 19 19 18 17 15 14 13 11 10 10 11 13 14 16 18 21 24 25 27 27 28 30 32
8 8 7 7 6 5 5 4 5 6 8 9 11 12 13 14 14 15 16 16 17 18 19 20 20 20 20 19 19 18 17 16 15 13 12 11 11 12 13 14 16 18 21 23 25 27 28 29 31
8 7 6 5 5 4 3 2 4 6 8 9 10 11 11 12 13 14 15 16 17 19 20 20 20 20 21 20 19 18 18 17 16 15 14 13 12 12 12 12 14 16 18 20 23 25 27 29 30
7 7 6 6 5 3 1 2 4 6 7 8 9 10 11 12 12 13 14 15 16 18 20 21 21 21 21 21 20 19 18 18 17 16 15 14 13 12 11 11 11 12 14 17 19 22 24 27 29
8 7 7 7 6 4 2 3 4 5 6 7 8 9 10 11 12 12 14 15 16 18 19 20 21 21 21 21 20 20 20 19 19 18 16 15 13 12 11 10 10 10 11 13 15 18 21 24 26
8 7 8 8 7 4 3 3 3 4 5 6 7 8 9 10 11 12 13 15 16 17 18 20 21 22 22 21 21 21 21 21 21 20 18 16 14 12 11 10 9 8 9 10 12 15 17 20 23
8 8 7 7 6 5 5 3 3 3 4 5 6 7 8 10 11 12 13 14 16 17 18 19 21 21 22 22 21 21 22 22 22 21 19 18 16 14 12 10 9 8 8 8 10 11 14 17 20
8 8 7 7 6 5 5 4 3 2 3 4 6 7 8 9 10 11 13 14 15 16 17 19 20 21 21 22 22 22 22 22 22 22 21 19 18 15 13 12 10 9 8 6 7 8 10 13 16
8 8 7 7 6 5 4 4 3 2 2 3 4 6 7 8 10 11 12 14 15 16 17 18 20 20 20 21 22 22 22 22 22 22 22 21 19 17 15 13 12 10 9 8 7 7 9 10 13
9 8 7 7 6 5 4 3 2 2 1 2 3 5 7 8 9 11 12 13 15 16 17 18 19 20 20 21 21 22 22 22 22 22 22 21 20 19 18 16 14 12 11 10 8 8 9 9 10

GEFSSGP_500_meanwind_096.txt.gz
Wind_Speed
7 8 8 8 7 6 5 4 4 4 5 5 6 7 8 9 10 10 12 13 12 11 11 10 10 11 12 12 12 12 12 12 12 13 13 13 13 13 13 13 12 12 11 11 11 11 11 11 12
8 9 9 8 6 5 6 6 6 7 6 7 8 9 10 11 12 13 13 14 14 13 12 12 12 12 13 14 15 15 14 15 15 15 15 15 15 15 15 15 14 14 14 13 12 12 12 12 12
9 10 10 10 7 7 7 8 7 8 8 9 10 11 12 13 14 14 14 14 14 13 13 14 13 14 16 16 17 17 17 17 17 17 17 17 17 18 18 17 17 16 15 15 14 13 13 12 12
9 10 11 10 9 9 8 8 9 10 10 10 11 13 14 15 16 16 16 16 16 16 15 16 17 16 17 19 19 19 20 20 20 19 19 19 19 20 20 20 19 18 17 16 15 14 14 13 12
10 10 11 11 11 10 11 11 12 12 13 13 13 14 15 16 17 18 18 18 18 19 19 20 20 20 20 21 21 21 22 22 22 22 21 22 21 22 22 21 21 20 19 18 17 16 14 13 12
11 11 12 12 12 12 12 12 12 13 15 15 14 15 15 17 18 19 20 20 21 22 23 23 24 24 25 25 25 25 25 25 25 26 26 25 24 24 23 24 23 22 20 19 19 17 16 14 13
12 13 14 13 12 13 13 14 15 14 15 15 16 16 17 18 19 19 20 21 22 23 24 24 25 25 26 27 28 28 29 29 29 29 28 27 27 27 26 25 25 24 23 21 20 20 18 16 15
14 14 15 14 13 14 15 15 15 15 16 17 17 16 17 18 19 20 21 22 22 23 24 24 24 25 26 27 29 29 30 31 32 32 31 30 29 29 29 29 27 26 25 24 23 22 21 19 17
14 15 16 15 15 15 16 16 16 16 16 17 17 17 17 18 19 20 21 21 22 22 22 23 24 24 25 26 28 29 31 32 33 34 33 33 32 31 30 30 29 28 27 25 25 24 23 21 20
16 16 16 15 16 16 16 16 16 16 16 16 16 17 17 18 19 19 19 20 19 20 20 21 22 22 23 24 25 26 28 30 32 34 34 34 34 32 32 31 30 30 28 28 27 26 25 24 22
17 16 16 16 16 16 16 16 16 16 16 16 17 17 17 17 17 17 16 16 17 17 18 19 20 20 21 22 22 23 24 26 29 31 33 34 34 34 33 33 31 31 30 29 28 27 26 26 24
17 17 17 17 16 16 17 16 16 15 14 15 15 16 15 14 14 15 15 16 16 17 17 17 18 18 19 19 20 20 22 22 24 27 29 31 32 33 33 33 31 31 30 30 29 28 26 26 25
17 16 16 15 15 16 14 14 14 13 13 13 13 13 13 13 13 14 15 15 16 16 16 17 17 17 18 18 18 19 19 20 21 23 25 27 29 30 31 32 32 32 31 30 31 30 28 26 25
17 17 17 16 15 14 14 14 13 13 13 12 11 11 11 12 12 13 14 15 15 15 16 16 17 17 17 17 17 17 18 18 19 20 21 23 25 27 27 29 30 31 31 30 30 30 29 27 26
18 16 16 16 14 14 13 13 13 12 11 9 9 9 10 11 12 13 14 14 15 15 16 16 17 17 17 17 17 17 17 17 17 17 18 20 21 23 25 26 27 29 30 29 28 28 28 27 26
16 15 15 14 12 12 12 12 11 10 8 8 8 8 9 10 11 12 13 14 15 16 16 17 17 17 17 17 17 16 16 16 15 15 15 16 17 19 21 23 25 26 28 29 28 28 27 27 26
16 15 14 12 10 11 11 11 9 8 7 7 7 7 8 9 10 12 13 14 15 16 17 17 18 18 18 17 17 16 15 15 14 13 13 13 15 16 18 20 22 24 26 27 28 28 28 28 28
15 14 12 11 11 11 10 9 8 7 6 6 6 6 7 8 9 11 12 14 15 16 17 18 18 18 18 17 17 17 15 14 14 13 12 12 13 14 16 17 19 21 24 26 27 28 28 28 28
14 12 12 11 10 10 9 9 7 6 5 5 5 5 6 7 9 11 12 14 15 16 18 18 19 18 18 18 18 18 17 16 14 13 12 12 12 13 15 16 17 19 21 24 26 27 28 28 28
13 12 11 11 10 10 9 8 7 5 5 5 4 5 5 6 8 10 11 13 15 16 18 19 19 19 19 18 19 18 17 16 15 14 13 13 12 12 13 15 16 18 20 22 25 27 27 28 28
12 12 12 11 10 10 9 7 6 4 4 3 3 4 5 6 7 9 11 13 15 16 18 19 20 20 19 19 19 19 19 18 17 16 14 13 12 12 12 13 14 16 18 20 23 25 27 28 28
13 12 12 12 10 9 8 7 6 4 3 2 2 3 4 5 7 9 10 12 14 16 18 19 20 20 20 20 20 20 19 19 18 17 15 14 13 12 11 12 13 14 15 17 19 22 24 26 26
13 12 12 11 10 9 8 7 5 4 3 1 2 3 4 5 7 9 10 12 14 16 17 19 20 20 20 20 20 20 20 19 19 18 16 15 13 12 11 10 10 11 13 14 16 18 21 23 25
13 12 12 12 10 9 8 6 5 4 3 1 2 2 3 5 7 8 10 12 14 15 17 19 20 20 20 21 20 20 20 20 20 19 17 15 14 12 11 9 9 8 9 11 12 14 18 20 23
13 12 12 11 10 8 7 6 5 5 3 2 2 2 3 5 6 8 10 12 13 15 17 18 19 20 20 20 21 21 20 21 20 20 19 17 15 14 12 10 8 7 7 8 10 12 15 17 20
12 12 12 11 9 8 7 6 6 5 3 2 2 2 3 4 6 8 9 11 13 14 16 18 19 20 20 20 21 21 21 21 21 20 19 18 16 15 13 11 10 7 5 6 7 9 11 14 16
12 12 11 11 9 8 7 6 6 6 4 3 2 2 3 4 6 7 9 10 12 14 16 17 19 19 20 21 21 21 21 21 21 20 20 19 17 15 14 13 11 9 6 5 6 7 9 11 13
11 11 11 10 10 8 7 7 7 7 6 4 2 2 2 4 5 7 9 10 12 13 15 16 18 19 20 20 21 21 21 21 21 20 20 19 18 16 15 14 12 10 9 7 5 5 7 8 11
11 11 11 10 10 9 8 7 8 7 6 5 3 2 2 3 5 7 8 10 11 13 14 15 17 18 19 20 20 20 20 20 20 20 20 19 19 17 16 15 13 12 10 9 7 5 6 7 9
10 10 11 11 10 9 8 7 8 8 7 5 4 2 2 3 5 7 8 9 11 12 14 15 16 17 18 19 20 20 20 20 20 20 20 19 19 18 17 16 15 14 12 10 9 7 6 6 7

GEFSSGP_500_meanwind_102.txt.gz
Wind_Speed
7 7 8 7 7 6 5 4 3 3 3 4 5 5 6 7 8 9 10 10 11 12 13 13 12 12 12 14 14 14 14 15 16 17 17 18 17 17 17 16 16 15 14 13 13 13 12 12 11
8 8 7 7 7 6 6 5 4 4 4 5 6 8 8 9 10 11 12 12 13 14 14 14 14 14 14 14 16 17 17 17 18 18 19 18 17 17 18 18 18 17 16 15 14 13 13 12 12
8 8 8 8 7 7 7 6 6 6 7 8 9 10 11 11 12 13 13 15 15 15 15 14 15 15 16 16 18 19 19 19 19 20 20 19 19 19 20 20 19 19 18 17 16 15 14 13 13
9 9 9 9 9 8 7 8 8 8 9 10 11 12 12 13 13 14 15 16 16 16 16 17 17 17 17 18 20 20 21 22 22 21 21 21 21 21 21 21 20 20 20 19 18 16 15 14 13
10 9 10 10 10 9 8 8 9 10 11 11 12 13 14 14 15 15 16 16 17 17 18 19 19 19 20 21 22 23 24 24 25 24 23 24 23 23 23 23 22 21 20 20 19 18 16 15 14
11 10 10 11 11 10 10 10 10 10 11 11 13 14 15 16 16 16 16 17 17 18 18 19 20 21 22 23 24 26 26 27 28 27 26 26 25 25 25 25 25 23 22 21 19 19 18 17 16
12 11 11 11 12 12 12 12 11 11 12 12 13 15 16 16 16 16 17 17 17 17 17 18 20 21 22 23 24 26 27 29 30 30 29 29 27 27 27 27 27 25 24 23 21 20 20 19 17
13 13 12 12 12 12 12 13 13 13 14 14 15 15 16 16 16 16 16 16 16 16 17 18 19 20 21 22 23 24 26 28 29 30 31 31 31 30 29 28 27 27 26 25 24 22 21 21 19
14 14 14 13 13 13 13 14 13 14 15 15 14 14 15 15 15 15 15 15 15 15 15 16 17 18 19 20 21 23 24 26 27 28 29 30 31 32 32 31 29 28 28 28 27 25 23 22 21
15 14 15 14 13 13 13 13 13 14 15 14 13 14 14 14 13 13 13 13 13 13 14 15 15 16 17 19 20 21 22 23 25 26 27 28 30 31 32 32 31 30 30 29 29 27 26 25 23
15 16 15 14 13 13 13 13 14 15 14 13 13 13 13 12 11 11 12 12 13 13 13 14 14 15 16 17 18 20 21 22 22 24 25 26 27 29 31 32 31 31 31 30 28 28 27 27 25
16 16 15 14 13 12 12 13 13 13 12 12 12 12 12 11 10 10 10 11 11 11 12 13 13 14 15 16 17 18 19 20 21 22 23 24 25 26 28 30 31 31 31 30 29 29 28 27 26
17 16 14 13 12 12 12 12 12 12 12 12 12 11 10 9 8 8 9 9 10 11 11 12 13 13 14 15 16 17 18 18 19 20 20 20 21 23 24 26 28 30 31 31 30 28 28 28 27
16 15 14 13 13 13 13 13 12 12 12 11 11 10 8 7 7 7 8 9 10 10 11 12 13 14 14 15 15 15 15 16 17 18 19 19 19 20 22 23 25 26 28 29 30 30 28 28 27
16 15 14 13 13 13 13 13 12 12 11 10 9 7 6 6 6 7 8 9 9 10 11 12 13 14 14 14 15 15 15 15 15 16 17 18 18 19 19 21 22 24 25 28 29 29 30 29 28
15 14 13 12 12 13 12 12 11 10 9 8 7 5 5 5 5 6 7 8 9 10 11 12 13 13 14 14 14 14 14 14 14 14 14 15 16 17 17 19 20 22 24 26 27 29 30 30 29
14 13 12 12 12 12 11 11 11 9 8 7 5 5 5 5 4 5 6 8 9 10 11 12 13 13 14 14 14 15 15 14 14 13 12 13 14 14 15 16 18 20 21 24 26 28 30 30 30
13 12 12 12 11 10 10 10 10 9 7 5 4 4 4 4 4 5 6 7 8 9 11 12 14 14 14 15 15 15 15 15 14 13 12 12 12 13 14 14 15 17 19 21 23 26 28 29 30
13 12 12 12 10 9 9 10 9 7 6 5 4 4 4 4 4 4 5 6 8 9 11 13 14 15 15 15 15 16 16 15 14 13 12 11 11 11 12 13 14 16 17 19 21 24 25 27 28
13 12 12 11 11 10 9 9 8 6 5 5 4 4 3 3 3 4 5 6 8 10 12 13 14 15 15 16 16 16 16 16 15 14 13 12 11 10 10 11 12 14 15 17 19 22 24 25 27
13 12 12 11 10 9 8 8 7 6 5 5 4 3 3 3 3 4 5 6 8 10 12 13 14 15 15 16 16 16 16 16 16 15 14 12 11 10 10 10 10 12 13 14 17 19 21 23 25
12 12 11 10 9 8 8 7 7 6 5 5 4 3 3 3 3 4 5 6 8 10 12 13 14 15 15 16 16 17 17 17 16 16 14 12 11 10 9 8 8 9 10 12 14 16 18 21 23
11 11 10 9 8 8 8 7 7 6 5 5 4 4 3 3 3 4 5 6 7 10 11 13 14 15 15 16 16 17 17 17 16 16 15 13 12 10 8 7 6 6 7 8 10 13 16 19 21
10 10 9 9 9 9 9 8 6 6 6 5 5 4 4 3 3 3 4 6 7 9 11 12 13 14 16 16 16 17 17 17 16 16 15 14 13 11 9 8 6 5 5 5 7 10 12 15 18
9 9 9 9 9 10 9 8 7 6 6 6 6 5 4 4 3 3 4 5 7 8 10 11 13 14 16 16 17 17 17 17 16 15 15 15 14 12 10 9 7 5 3 3 5 7 9 12 15
9 9 9 10 10 10 9 8 7 7 6 6 6 5 5 4 4 3 4 5 6 8 9 10 12 14 15 16 16 17 17 17 17 16 15 15 15 14 12 10 8 6 4 2 3 4 6 8 12
8 9 9 10 9 8 8 8 8 8 7 7 6 6 5 4 4 3 3 4 6 7 9 10 11 13 15 15 16 16 17 17 17 17 16 15 14 14 13 11 9 7 6 3 2 3 5 6 8
8 9 9 9 8 8 8 9 9 9 9 8 7 6 5 5 4 3 3 4 5 7 8 9 11 12 14 15 15 16 16 17 16 17 17 16 15 14 13 12 10 9 7 5 3 2 3 5 6
9 9 9 9 9 8 8 9 10 10 10 9 8 7 7 5 4 4 3 4 5 6 7 8 10 12 13 14 15 15 15 16 16 16 16 17 16 15 13 12 11 9 8 6 5 3 2 3 4
10 10 10 10 9 9 9 9 11 11 10 10 10 9 8 7 5 4 4 4 5 6 7 8 9 11 12 13 14 15 15 15 16 16 16 16 16 16 14 13 12 11 9 8 7 5 4 2 3

GEFSSGP_500_meanwind_108.txt.gz
Wind_Speed
9 8 7 8 8 7 7 6 5 5 5 5 6 7 7 8 9 10 11 12 13 13 13 13 14 14 14 14 15 16 16 17 18 19 19 20 19 20 22 22 22 21 20 19 18 17 17 16 16
9 8 7 8 8 8 8 7 7 7 7 7 8 9 9 10 11 12 13 14 14 14 15 15 15 15 15 15 16 17 17 17 18 19 20 21 21 21 22 23 23 23 22 21 20 19 19 18 17
9 8 8 8 8 8 8 8 9 9 9 9 9 10 11 12 13 14 14 15 15 15 16 16 16 17 17 17 18 18 18 19 19 20 20 21 22 22 22 23 23 23 23 22 21 20 19 19 18
10 10 9 9 9 9 9 9 10 10 10 10 10 11 11 13 14 15 16 17 16 16 17 17 18 18 18 19 20 20 20 21 22 22 22 22 22 22 22 22 23 24 24 23 22 21 21 20 20
11 11 10 10 11 10 8 10 11 11 11 10 11 12 12 13 14 15 16 17 17 16 17 17 17 18 19 19 20 21 22 23 24 25 25 25 25 24 24 23 24 24 23 24 24 23 22 22 21
13 12 12 12 13 11 10 10 10 11 12 12 13 13 13 14 14 15 16 17 16 16 15 16 16 17 18 18 20 21 22 23 24 25 26 26 26 26 26 26 26 25 25 25 24 24 23 22 22
14 14 14 14 13 12 12 10 11 12 13 13 14 13 12 13 15 15 15 16 15 15 15 15 16 17 18 18 19 20 21 22 23 24 25 25 25 26 26 26 26 26 26 26 25 24 24 24 23
16 15 15 15 14 12 12 12 13 14 14 14 14 14 13 13 14 14 14 14 14 14 15 15 16 16 17 17 18 19 19 21 22 23 25 25 25 25 26 26 25 26 26 26 25 24 24 24 24
17 15 15 15 15 12 11 12 13 14 14 14 14 13 13 14 13 13 13 12 12 13 14 14 15 16 16 17 17 19 19 19 21 22 24 25 25 25 26 26 26 26 26 26 26 25 24 25 25
17 15 14 15 15 13 13 13 14 14 14 14 13 13 13 13 13 12 12 11 11 12 13 14 14 15 16 16 17 18 19 19 19 20 22 23 24 25 26 26 26 27 27 27 26 26 26 26 25
18 17 16 15 14 14 14 13 13 13 14 13 12 12 12 12 12 11 11 10 11 12 13 13 14 15 16 17 17 18 19 19 19 20 21 22 23 24 24 25 25 26 28 27 27 28 27 26 26
18 17 16 15 13 13 14 13 12 13 13 13 12 11 12 12 10 10 9 10 10 11 12 13 14 15 16 17 18 18 19 19 19 20 20 21 21 22 23 23 24 25 26 27 28 29 29 28 27
19 18 16 17 15 14 13 13 13 12 12 13 13 12 10 10 10 9 9 9 10 11 12 13 14 15 16 17 18 19 19 19 19 19 20 20 20 21 22 22 22 23 25 26 26 28 28 28 28
19 17 16 16 15 14 14 14 13 12 12 12 11 10 10 9 8 8 8 9 10 11 12 13 14 16 17 18 18 18 19 19 19 20 20 20 20 20 20 20 20 21 23 24 25 26 27 28 28
18 15 16 16 15 14 15 14 13 12 11 11 11 9 9 8 7 7 7 8 10 11 12 13 15 16 17 18 18 18 19 19 19 20 20 20 19 19 19 18 18 20 21 22 23 24 25 27 28
18 16 16 15 14 13 13 13 12 11 11 11 10 9 8 7 7 7 7 8 9 11 12 14 15 17 18 18 19 19 19 19 19 20 20 19 19 18 17 17 17 17 19 20 21 22 24 25 26
16 14 13 13 12 11 11 12 12 10 10 10 10 9 7 6 6 6 7 7 9 11 12 14 16 17 18 18 19 19 19 19 19 19 19 19 18 17 15 15 16 16 17 18 20 21 23 24 25
13 13 12 12 10 8 10 11 11 9 9 9 8 8 7 6 6 6 7 8 9 11 12 14 15 16 17 19 19 20 19 19 18 18 18 18 17 16 14 14 14 15 15 16 18 20 21 23 25
13 12 11 12 11 8 9 10 10 9 8 8 8 8 7 6 5 6 7 8 9 11 12 14 15 16 18 18 19 19 19 18 18 18 18 17 16 15 14 13 13 14 14 14 16 18 20 21 24
13 11 11 12 10 8 9 9 9 9 8 8 8 8 7 6 5 6 7 8 9 11 12 14 15 16 17 18 19 19 19 18 18 18 18 17 16 15 14 13 12 12 12 12 13 15 18 20 22
12 11 10 9 7 7 7 7 9 8 7 8 8 7 7 7 6 5 7 8 9 11 12 13 15 16 17 18 19 19 19 18 18 18 18 17 16 15 13 12 11 10 10 11 11 12 15 17 19
11 10 9 8 7 6 7 7 8 9 7 8 8 7 7 7 7 7 8 8 9 10 12 13 14 16 17 18 18 19 19 18 18 18 18 17 16 14 13 12 10 9 8 9 10 10 11 14 16
9 8 7 7 6 6 6 6 8 11 10 8 7 7 7 8 8 8 8 9 9 10 12 13 14 15 16 17 18 18 18 18 19 18 17 16 16 14 13 11 9 7 7 7 7 8 10 11 13
7 6 4 3 3 5 6 7 7 9 10 9 8 8 8 8 9 9 9 9 9 10 11 12 13 15 16 17 17 18 18 18 18 18 17 16 16 14 13 11 9 7 6 5 5 6 8 9 11
6 5 3 1 3 5 8 10 9 10 10 11 9 8 8 8 9 9 8 8 9 10 11 12 13 14 15 16 17 17 18 18 18 18 17 16 16 15 13 12 10 7 6 4 4 5 6 7 9
5 5 4 3 3 6 8 10 11 11 11 11 10 10 10 9 9 8 8 8 8 9 10 11 12 13 14 15 16 17 18 18 18 18 17 16 15 15 14 12 11 9 6 4 3 4 5 6 7
5 5 7 6 4 4 5 10 13 12 11 11 10 10 10 10 9 9 8 8 8 9 10 11 11 12 13 14 15 17 18 18 19 18 17 16 15 15 14 13 12 10 8 5 3 3 4 5 6
5 6 6 6 5 3 3 8 14 13 12 11 11 11 11 10 10 9 8 8 8 9 10 10 11 12 13 13 15 16 17 18 18 18 17 16 15 15 15 14 12 11 9 7 5 4 3 3 4
6 7 7 7 6 6 8 9 14 15 14 13 12 12 12 11 11 10 9 9 9 9 9 10 10 11 12 13 14 15 16 17 18 18 18 17 16 16 15 14 13 11 9 8 6 5 4 3 3
9 9 9 10 9 10 12 12 14 15 15 14 13 13 12 12 11 11 11 10 10 9 9 10 10 11 11 13 14 15 15 16 17 18 17 17 16 16 16 15 14 13 11 9 8 6 4 3 2